Regional Weather Roundup
Issued by NWS Austin/San Antonio, TX

Home | Current Version | Previous Version | Text Only | Print | Product List | Glossary On
Versions: 1 2 3 4 5 6 7 8 9 10 11 12 13 14 15 16 17 18 19 20 21 22 23 24 25 26 27 28 29 30 31 32 33 34 35 36 37 38 39 40 41 42 43 44 45 46 47 48 49 50
000
ASUS44 KEWX 242101
RWREWX
SOUTH TEXAS REGIONAL WEATHER ROUNDUP
NATIONAL WEATHER SERVICE AUSTIN/SAN ANTONIO TX
400 PM CDT SAT AUG 24 2019

NOTE: "FAIR" INDICATED FEW OR NO CLOUDS BELOW 12,000 FEET WITH NO
SIGNIFICANT WEATHER AND/OR OBSTRUCTIONS TO VISIBILITY.

* - THESE STATIONS ARE NOT NWS OR FAA STATIONS...AND ARE NOT SUBJECT
    TO NWS AND FAA QUALITY CONTROL.

TXZ171-172-183>190-242200-
TEXAS HILL COUNTRY AND EDWARDS PLATEAU

CITY           SKY/WX    TMP DP  RH WIND       PRES   REMARKS
JUNCTION       LGT RAIN  79  71  76 W15G26    29.95R
*LLANO         MOSUNNY   93  70  46 E14G22    29.91F HX  99
BURNET         MOSUNNY   85  73  67 S9G17     29.93F HX  91
*HORSESHOE BAY PTSUNNY   86  70  58 NE14G26   29.91R HX  90
*KERRVILLE     MOSUNNY   94  67  40 NE5       29.89F HX  98
*FREDERICKSBRG MOSUNNY   91  64  40 S9        29.92F HX  93
*ROCKSPRINGS   SUNNY     90  64  43 CALM      29.97F HX  91
*BOERNE        CLOUDY    73  68  83 S15G28    29.93R
*CASTROVILLE   MOSUNNY   97  66  36 SE8       29.85F HX 100
HONDO          PTSUNNY   98  67  36 SE10      29.83F HX 102
*UVALDE        CLOUDY    94  68  43 E5        29.84F HX  98
DEL RIO        SUNNY     97  69  40 SE8       29.82F HX 103
LAUGHLIN AFB   SUNNY     97  69  40 SE7       29.83F HX 102
SPOFFORD       MOSUNNY   96  68  40 S5        29.78F HX 101
*EAGLE PASS    MOSUNNY   97  68  38 E6G14     29.83F HX 101
CARRIZO SPRGS  MOSUNNY   97  72  44 SE6       29.80F HX 105
$$

TXZ173-191>194-202-209-217>225-228-242200-
CENTRAL AND SOUTH CENTRAL TEXAS

CITY           SKY/WX    TMP DP  RH WIND       PRES   REMARKS
GEORGETOWN     SUNNY     91  71  51 NW3       29.89F HX  97
AUSTIN/BERGSTM MOSUNNY   96  72  45 CALM      29.84F HX 104
AUSTIN/MABRY   MOSUNNY   95  67  39 CALM      29.86F HX  99
*AUSTIN/EXEC   SUNNY     95  68  41 E5        29.86F HX  99
*LAGO VISTA    LGT RAIN  79  73  80 N9        29.91S
SAN MARCOS     MOSUNNY   96  72  45 SE7       29.85F HX 104
NEW BRAUNFELS  SUNNY     94  70  45 E7        29.84F HX 100
RANDOLPH AFB   MOSUNNY   98  73  44 E10       29.84F HX 107
SEGUIN         PTSUNNY   94  67  41 E7        29.87F HX  97
KELLY FIELD    PTSUNNY   97  70  41 VRB3      29.82F HX 104
SAN ANTONIO    LGT RAIN  93  70  46 E7        29.85F HX  99
STINSON FIELD  PTSUNNY   99  71  40 E8        29.80F HX 107
PLEASANTON     PTSUNNY   95  69  43 SE6       29.83F THUNDER HX 100
*LA GRANGE     MOSUNNY   96  74  48 S9        29.82F HX 107
*GIDDINGS      RAIN      92  76  58 SE22G29   29.86F HX 104
*GONZALES      SUNNY     98  73  43 S10G16    29.83F HX 108
$$

TXZ163>164-176>182-195>201-210>213-226-227-235-242200-
SOUTHEAST TEXAS

CITY           SKY/WX    TMP DP  RH WIND       PRES   REMARKS
COLLEGE STN    PTSUNNY   94  70  45 E10       29.84F HX 100
*BRYAN         PTSUNNY   97  72  44 E10G16    29.86F HX 106
*CALDWELL      MOSUNNY   94  70  45 SE5       29.85F HX 100
*CROCKETT      SUNNY     91  72  52 CALM      29.90F HX  98
*BRENHAM       SUNNY     96  71  44 SE5       29.85F HX 103
HUNTSVILLE     MOSUNNY   95  70  44 VRB3      29.86F HX 101
CONROE         MOSUNNY   92  73  53 W5        29.86F HX 100
HOUSTON BUSH   PTSUNNY   93  71  48 S6        29.85F HX 100
HOUSTON HOBBY  PTSUNNY   90  73  57 SW8       29.85F HX  98
*HOUSTON SW AP FAIR      89  76  65 S5        29.87F HX  99
PEARLAND       FAIR      89  74  60 SE8       29.87F HX  98
HOUSTON HOOKS  FAIR      93  72  50 VRB5      29.85F HX 101
ELLINGTON FLD  PTSUNNY   90  73  58 S6        29.84F HX  98
SUGAR LAND     FAIR      91  77  63 S10       29.85F HX 104
*HOUSTON EXEC  FAIR      97  73  46 CALM      29.85F HX 107
*CLEVELAND MUN FAIR      90  77  65 CALM      29.86F HX 103
*WHARTON       SUNNY     90  72  55 SE10      29.86F HX  96
*COLUMBUS      FAIR      96  70  42 S7        29.86F HX 102
*EAGLE LAKE    CLOUDY    97  75  48 E8        29.84F HX 109
$$

TXZ214>216-236>238-242200-
THE UPPER TEXAS COAST

CITY           SKY/WX    TMP DP  RH WIND       PRES   REMARKS
*ORANGE        FAIR      86  81  83 S8        29.89S HX 102
PORT ARTHUR    FAIR      87  77  72 S7        29.86F HX  99
GALVESTON      FAIR      86  77  74 S12       29.88F HX  97
ANGLETON       PTSUNNY   87  76  69 SE9       29.87F HX  97
*BAY CITY      MOSUNNY   91  80  69 SE10      29.87F HX 108
PALACIOS       MOSUNNY   90  77  65 SE15      29.86F HX 103
$$

TXZ229>234-239>247-242200-
TEXAS COASTAL BEND AND RIO GRANDE PLAINS

CITY           SKY/WX    TMP DP  RH WIND       PRES   REMARKS
VICTORIA       MOSUNNY   88  75  65 SE18      29.85F HX  97
*BEEVILLE      NOT AVBL
ROCKPORT       SUNNY     85  77  77 SE16      29.84F HX  95
*PORT ARANSAS  SUNNY     87  78  75 E16       29.85F HX  99
*PORT LAVACA   MOSUNNY   88  79  74 SE14      29.85F HX 102
*INGLESIDE     SUNNY     86  80  81 SE15G21   29.84F HX 100
CORPUS CHRISTI CLOUDY    93  77  59 E17G28    29.83F HX 107
CORPUS NAS     MOSUNNY   90  82  77 E18       29.83F HX 111
*ROBSTOWN      SUNNY     92  76  60 SE17G26   29.84F HX 104
ALICE          SUNNY     94  74  52 SE24      29.80F HX 104
KINGSVILLE NAS SUNNY     90  75  61 E14       29.82F HX 100
COTULLA        SUNNY    100  65  31 SE13      29.80F HX 103
LAREDO         MOSUNNY   92  73  53 NE12      29.80F HX 100
$$

TXZ248>255-242200-
DEEP SOUTH TEXAS

CITY           SKY/WX    TMP DP  RH WIND       PRES   REMARKS
BROWNSVILLE    FAIR      96  78  56 SE15      29.82F HX 112
PORT ISABEL    FAIR      93  77  59 SE21G26   29.82F HX 107
HARLINGEN      MOSUNNY   96  75  50 SE20      29.80F HX 108
*HEBBRONVILLE  TSTM      78  73  85 S6        29.84F
MCALLEN        MOSUNNY  101  70  36 E10       29.78F HX 108
*WESLACO       SUNNY    100  72  40 SE9       29.79F HX 108
FALFURRIAS     MOSUNNY   98  73  43 SE18G24   29.80F HX 108
EDINBURG       PTSUNNY  101  65  31 E10       29.80F HX 104
*ZAPATA        CLOUDY   101  63  29 NE13      29.78F HX 103
$$

TXZ213>215-236>238-242>244-246-247-251-254-255-242200-
CMAN STATIONS

STATION/POSITION TIME  TEMP    WIND        PRES    WAVE
                       AIR SEA DIR/SP/G            HT/PER
                 (UTC) (F)     (DEG/KT/KT) (MB)    (FT/S)
SABINE PASS      2024   82 87  190/ 11/ 16 1013.3
NORTH JETTY/GLS  2024   83 87  190/ 12/ 13 1010.8
EAGLE POINT      2024   84 87  150/  7/  8 1010.7
MORGANS POINT    2024   86 88  180/  7/  9 1011.3
PORT O`CONNOR    2024   83 88  130/ 18/ 20 1011.4
PORT ARANSAS     2000   84 88   80/ 18/ 20 1012.0
MALAQUITE BEACH  2024   87 88   90/ 13/ 15 1010.9
BAFFIN BAY       2024   86 92   80/ 15/ 18 1011.0
PORT ISABEL      2024   86 83  130/ 15/ 18 1011.1
$$



USA.gov is the U.S. government's official web portal to all federal, state and local government web resources and services.